DW2217 Weather Reports


time (UTC)temp
C
wind
direction
speed
KPH
gust
KPH
rain 1hr
cm
rain 24hr
cm
rain mn
cm
humidity
%
barometer
mb
20260510203102 13 93 0.0 4.8 0.00 0.20 0.20 95 1011.0
20260510202600 13 85 0.0 3.2 0.00 0.20 0.20 95 1010.8
20260510202057 14 83 1.6 3.2 0.00 0.20 0.20 95 1010.8
20260510201554 13 84 0.0 4.8 0.00 0.20 0.20 95 1010.5
20260510201051 13 358 0.0 0.0 0.00 0.20 0.20 94 1010.7
20260510200547 13 326 0.0 3.2 0.00 0.20 0.20 93 1011.1
20260510200045 13 20 0.0 3.2 0.00 0.20 0.20 93 1010.9
20260510195543 13 303 3.2 3.2 0.00 0.20 0.20 94 1010.6
20260510195038 12 281 3.2 3.2 0.00 0.20 0.20 95 1010.8
20260510194533 12 281 3.2 3.2 0.18 0.20 0.20 94 1010.9
20260510194030 12 273 4.8 8.0 0.18 0.20 0.20 93 1010.7
20260510193525 12 270 4.8 8.0 0.00 0.18 0.18 93 1010.7
20260510193021 12 275 9.7 16.1 0.30 0.18 0.18 92 1010.9
20260510192515 12 286 11.3 16.1 0.66 0.15 0.15 92 1011.1
20260510192012 13 305 12.9 16.1 0.61 0.13 0.13 91 1010.9
20260510191509 13 280 11.3 16.1 0.13 0.05 0.05 85 1010.7
20260510191005 14 281 9.7 11.3 0.00 0.03 0.03 85 1011.0
20260510190503 15 287 14.5 22.5 0.00 0.03 0.03 81 1010.8
20260510185959 16 303 11.3 14.5 0.00 0.03 0.03 77 1010.6
20260510185456 16 290 6.4 8.0 0.00 0.03 0.03 74 1010.6
20260510184953 16 27 3.2 3.2 0.00 0.03 0.03 74 1010.7
20260510184450 17 340 3.2 3.2 0.00 0.03 0.03 75 1010.4
20260510183945 17 236 3.2 4.8 0.00 0.03 0.03 74 1010.8
20260510183442 17 90 0.0 0.0 0.00 0.03 0.03 75 1010.6
20260510182941 17 91 0.0 0.0 0.00 0.03 0.03 75 1010.8
20260510182438 16 212 4.8 8.0 0.00 0.03 0.03 74 1010.9
20260510181933 16 206 4.8 4.8 0.00 0.03 0.03 76 1011.0
20260510181432 17 262 4.8 4.8 0.00 0.03 0.03 75 1010.9
20260510180927 17 243 0.0 3.2 0.00 0.03 0.03 76 1011.1
20260510180425 17 239 0.0 3.2 0.00 0.03 0.03 77 1011.0
20260510175922 16 156 3.2 4.8 0.00 0.03 0.03 78 1011.0
20260510175417 16 116 0.0 3.2 0.00 0.03 0.03 79 1011.0
20260510174913 16 116 0.0 3.2 0.00 0.03 0.03 79 1011.1
20260510174412 15 159 0.0 3.2 0.00 0.03 0.03 82 1011.3
20260510173908 16 151 3.2 4.8 0.00 0.03 0.03 80 1011.2
20260510173403 16 204 3.2 4.8 0.00 0.03 0.03 80 1011.3
20260510172900 16 79 0.0 3.2 0.00 0.03 0.03 79 1011.4
20260510172356 16 65 0.0 3.2 0.00 0.03 0.03 79 1011.4
20260510171852 16 354 1.6 3.2 0.00 0.03 0.03 82 1011.3
20260510171350 15 118 3.2 3.2 0.00 0.03 0.03 80 1011.6
20260510170847 15 95 3.2 3.2 0.00 0.03 0.03 80 1011.6
20260510170343 15 114 1.6 3.2 0.00 0.03 0.03 83 1011.5
20260510165838 15 196 1.6 4.8 0.00 0.03 0.03 83 1011.6
20260510165335 15 142 3.2 3.2 0.00 0.03 0.03 84 1011.7
20260510164833 14 143 1.6 4.8 0.00 0.03 0.03 85 1011.6
20260510164330 14 107 3.2 3.2 0.00 0.03 0.03 87 1011.8
20260510163829 13 198 3.2 4.8 0.00 0.03 0.03 88 1011.7
20260510163325 13 178 3.2 4.8 0.00 0.03 0.03 88 1011.7
20260510162820 14 75 0.0 4.8 0.00 0.03 0.03 87 1011.6
20260510162318 13 230 3.2 4.8 0.00 0.03 0.03 89 1011.4
20260510161813 13 189 4.8 4.8 0.00 0.03 0.03 90 1011.5
20260510161309 13 107 1.6 4.8 0.00 0.03 0.03 90 1011.4
20260510160806 13 175 3.2 3.2 0.00 0.03 0.03 91 1011.7
20260510160302 12 194 3.2 4.8 0.00 0.03 0.03 92 1011.6
20260510155757 12 186 3.2 4.8 0.00 0.03 0.03 93 1011.8
20260510155254 12 101 0.0 3.2 0.00 0.03 0.03 94 1011.9
20260510154749 12 82 0.0 3.2 0.00 0.03 0.03 95 1011.8
20260510154246 12 113 3.2 4.8 0.00 0.03 0.03 96 1012.0
20260510153741 11 124 1.6 3.2 0.00 0.03 0.03 97 1012.0
20260510153237 11 124 1.6 3.2 0.00 0.03 0.03 98 1012.0
20260510152734 11 124 1.6 3.2 0.00 0.03 0.03 98 1012.1
20260510152230 11 98 0.0 3.2 0.00 0.03 0.03 98 1012.0
20260510151727 11 97 0.0 3.2 0.00 0.03 0.03 98 1012.1
20260510151226 11 96 1.6 3.2 0.00 0.03 0.03 98 1011.9
20260510150721 11 96 1.6 3.2 0.00 0.03 0.03 98 1011.9
20260510150216 11 95 1.6 3.2 0.00 0.03 0.03 98 1011.7
20260510145713 11 94 0.0 3.2 0.00 0.03 0.03 98 1011.9
20260510145209 10 94 1.6 3.2 0.00 0.03 0.03 98 1011.9
20260510144705 11 94 0.0 3.2 0.00 0.03 0.03 98 1012.2
20260510144202 11 94 0.0 3.2 0.00 0.03 0.03 98 1011.9
20260510143657 10 94 0.0 3.2 0.00 0.03 0.03 98 1012.0
20260510143154 10 78 0.0 3.2 0.00 0.03 0.03 98 1011.6
20260510142650 10 78 1.6 3.2 0.00 0.03 0.03 98 1011.7
20260510142147 10 76 0.0 3.2 0.00 0.03 0.03 98 1012.1
20260510141644 10 57 3.2 3.2 0.00 0.03 0.03 98 1012.1
20260510141142 9 134 0.0 0.0 0.00 0.03 0.03 98 1012.2
20260510140638 9 135 0.0 3.2 0.00 0.03 0.03 98 1012.2
20260510140137 8 120 3.2 3.2 0.00 0.03 0.03 98 1012.5
20260510135633 8 114 0.0 0.0 0.00 0.03 0.03 98 1012.5
20260510135129 8 114 0.0 0.0 0.00 0.03 0.03 98 1012.5
20260510134626 8 112 3.2 3.2 0.00 0.03 0.03 98 1012.6
20260510134123 8 101 0.0 0.0 0.00 0.03 0.03 98 1012.6
20260510133620 8 101 0.0 0.0 0.00 0.03 0.03 98 1012.4
20260510133115 8 102 0.0 3.2 0.00 0.03 0.03 98 1012.2
20260510132612 8 90 1.6 3.2 0.00 0.03 0.03 98 1012.1
20260510132109 8 88 1.6 3.2 0.00 0.03 0.03 98 1012.1
20260510131607 8 114 1.6 3.2 0.00 0.03 0.03 98 1012.0
20260510131104 8 114 3.2 3.2 0.00 0.03 0.03 98 1011.9
20260510130600 8 114 1.6 3.2 0.00 0.03 0.03 98 1012.2
20260510130058 8 114 0.0 3.2 0.00 0.03 0.03 98 1012.1
20260510125554 8 114 1.6 3.2 0.00 0.03 0.03 98 1012.0
20260510125050 8 114 1.6 3.2 0.00 0.03 0.03 98 1011.9
20260510124547 8 114 0.0 3.2 0.00 0.03 0.03 98 1012.1
20260510124044 8 117 0.0 3.2 0.00 0.03 0.03 98 1012.0
20260510123539 8 118 0.0 0.0 0.00 0.03 0.03 98 1012.1
20260510123036 8 118 0.0 0.0 0.00 0.03 0.03 98 1012.3
20260510122531 8 118 0.0 0.0 0.00 0.03 0.03 98 1012.2
20260510122028 8 118 0.0 0.0 0.00 0.03 0.03 98 1012.3
20260510121525 8 119 1.6 3.2 0.00 0.03 0.03 98 1012.1
20260510121022 7 168 0.0 3.2 0.00 0.03 0.03 98 1012.3
20260510120519 7 83 0.0 3.2 0.00 0.03 0.03 98 1012.3
20260510120015 7 83 0.0 3.2 0.00 0.03 0.03 98 1012.1
20260510115512 7 82 0.0 0.0 0.00 0.03 0.03 98 1012.1
20260510115009 7 82 0.0 0.0 0.00 0.03 0.03 98 1012.1
20260510114505 7 82 0.0 0.0 0.00 0.03 0.03 98 1012.1
20260510114001 7 66 0.0 0.0 0.00 0.03 0.03 98 1011.6
20260510113456 7 66 0.0 0.0 0.00 0.03 0.03 98 1011.8
20260510112954 7 66 0.0 3.2 0.00 0.03 0.03 98 1011.9
20260510112451 7 66 0.0 0.0 0.00 0.03 0.03 98 1011.8
20260510111947 7 66 0.0 0.0 0.00 0.03 0.03 98 1011.6
20260510111443 7 66 0.0 0.0 0.00 0.03 0.03 98 1011.3
20260510110939 7 66 0.0 0.0 0.00 0.03 0.03 98 1011.3
20260510110436 7 65 0.0 0.0 0.00 0.03 0.03 98 1011.3
20260510105931 7 65 0.0 3.2 0.00 0.03 0.03 98 1011.5
20260510105427 7 67 0.0 3.2 0.00 0.03 0.03 98 1011.1
20260510104922 7 67 0.0 0.0 0.18 0.03 0.03 98 1011.2
20260510104420 7 66 1.6 3.2 0.18 0.03 0.03 98 1011.3
20260510103916 7 67 0.0 0.0 0.00 0.00 0.00 98 1010.9
20260510103414 7 67 1.6 3.2 0.00 0.00 0.00 98 1011.1
20260510102914 7 67 0.0 0.0 0.00 0.00 0.00 98 1011.0
20260510102410 7 67 0.0 0.0 0.00 0.00 0.00 98 1010.9
20260510101902 7 67 0.0 0.0 0.00 0.00 0.00 98 1010.8
20260510101400 7 67 0.0 0.0 0.00 0.00 0.00 98 1010.9
20260510100856 6 68 1.6 3.2 0.00 0.00 0.00 98 1010.9
20260510100354 6 66 0.0 0.0 0.00 0.00 0.00 98 1010.4
20260510095850 6 66 0.0 0.0 0.00 0.00 0.00 98 1010.6
20260510095344 6 66 0.0 0.0 0.00 0.00 0.00 98 1010.8
20260510094839 6 66 0.0 0.0 0.00 0.00 0.00 98 1010.7
20260510094334 6 66 0.0 3.2 0.00 0.00 0.00 98 1010.3
20260510093831 6 66 0.0 0.0 0.00 0.00 0.00 98 1010.5
20260510093326 6 67 1.6 3.2 0.00 0.00 0.00 98 1010.6
20260510092823 6 67 0.0 0.0 0.00 0.00 0.00 98 1010.5
20260510092319 6 70 0.0 3.2 0.00 0.00 0.00 98 1010.7
20260510091815 6 12 0.0 3.2 0.00 0.00 0.00 98 1011.1
20260510091312 6 25 0.0 3.2 0.00 0.00 0.00 98 1010.9
20260510090809 6 26 0.0 0.0 0.00 0.00 0.00 98 1010.9
20260510090306 6 25 0.0 3.2 0.00 0.00 0.00 98 1010.9
20260510085801 6 25 0.0 3.2 0.00 0.00 0.00 98 1011.0
20260510085301 6 42 3.2 3.2 0.00 0.00 0.00 98 1011.0
20260510084757 6 44 0.0 0.0 0.00 0.00 0.00 98 1011.0
20260510084254 6 44 0.0 0.0 0.00 0.00 0.00 98 1011.0
20260510083750 6 44 0.0 3.2 0.00 0.00 0.00 98 1010.7
20260510083248 6 44 0.0 3.2 0.00 0.00 0.00 98 1010.7
20260510082743 6 44 0.0 0.0 0.00 0.00 0.00 98 1010.8
20260510082240 6 44 0.0 0.0 0.00 0.00 0.00 98 1010.9
20260510081739 6 44 0.0 0.0 0.00 0.00 0.00 98 1011.0
20260510081235 6 44 0.0 0.0 0.00 0.00 0.00 98 1011.3
20260510080730 6 44 0.0 0.0 0.00 0.00 0.00 98 1011.1
20260510080226 6 44 0.0 0.0 0.00 0.00 0.00 98 1011.0
20260510075723 6 44 0.0 3.2 0.00 0.00 0.00 98 1011.3
20260510075221 6 43 1.6 3.2 0.00 0.00 0.00 98 1011.4
20260510074718 6 45 1.6 3.2 0.00 0.00 0.00 98 1011.1
20260510074214 6 45 3.2 3.2 0.00 0.00 0.00 98 1011.1
20260510073711 6 46 0.0 3.2 0.00 0.00 0.00 98 1010.8
20260510073206 6 48 3.2 3.2 0.00 0.00 0.00 98 1011.1
20260510072702 6 49 0.0 3.2 0.00 0.00 0.00 98 1011.0
20260510072159 6 50 0.0 0.0 0.00 0.00 0.00 98 1010.9
20260510071655 6 50 0.0 0.0 0.00 0.00 0.00 98 1011.2
20260510071153 6 50 0.0 0.0 0.00 0.00 0.00 98 1011.2
20260510070650 6 50 0.0 0.0 0.00 0.00 0.00 98 1011.1
20260510070148 6 50 0.0 0.0 0.00 0.00 0.00 98 1011.1
20260510065643 6 50 0.0 3.2 0.00 0.00 0.00 98 1011.1
20260510065140 6 50 0.0 0.0 0.00 0.00 0.00 98 1011.3
20260510064636 6 50 0.0 0.0 0.00 0.00 0.00 98 1011.0
20260510064133 6 50 0.0 3.2 0.00 0.00 0.00 98 1011.3
20260510063630 6 50 1.6 3.2 0.00 0.00 0.00 98 1011.2
20260510063127 6 50 0.0 3.2 0.00 0.00 0.00 98 1011.3
20260510062623 6 50 0.0 0.0 0.00 0.00 0.00 98 1011.4
20260510062119 6 50 0.0 0.0 0.00 0.00 0.00 98 1011.5
20260510061615 6 50 0.0 0.0 0.00 0.00 0.00 98 1011.6
20260510061112 6 50 0.0 0.0 0.00 0.00 0.00 98 1011.7
20260510060608 6 50 0.0 0.0 0.00 0.00 0.00 98 1011.8
20260510060105 6 50 0.0 0.0 0.00 0.00 0.00 98 1011.7
20260510055601 6 50 0.0 0.0 0.00 0.00 0.00 98 1011.7
20260510055059 6 50 0.0 0.0 0.00 0.00 0.00 98 1011.6
20260510054555 6 50 0.0 0.0 0.00 0.00 0.00 98 1011.7
20260510054050 6 50 0.0 0.0 0.00 0.00 0.00 98 1011.7
20260510053549 6 50 0.0 0.0 0.00 0.00 0.00 98 1011.8
20260510053046 6 50 0.0 0.0 0.00 0.00 0.00 98 1012.0
20260510052542 6 50 0.0 0.0 0.00 0.00 0.00 98 1012.0
20260510052038 6 50 0.0 0.0 0.00 0.00 0.00 98 1011.8
20260510051534 6 50 0.0 0.0 0.00 0.00 0.00 98 1012.0
20260510051031 6 50 0.0 0.0 0.00 0.00 0.00 98 1012.0
20260510050529 6 50 0.0 0.0 0.00 0.00 0.00 98 1011.9
20260510050026 6 50 0.0 0.0 0.00 0.00 0.00 98 1011.8
20260510045523 6 50 0.0 0.0 0.00 0.00 0.00 98 1011.8
20260510045019 6 50 0.0 0.0 0.00 0.00 0.00 98 1011.8
20260510044516 6 50 0.0 0.0 0.00 0.00 0.00 98 1011.9
20260510044013 6 50 0.0 0.0 0.00 0.00 0.00 98 1011.7
20260510043508 6 50 0.0 0.0 0.00 0.00 0.00 98 1012.1
20260510043004 6 50 0.0 0.0 0.00 0.00 0.00 98 1012.2
20260510042458 6 50 0.0 0.0 0.00 0.00 0.00 98 1012.2
20260510041953 6 50 0.0 0.0 0.00 0.00 0.00 98 1012.1
20260510041450 6 50 0.0 0.0 0.00 0.00 0.00 98 1012.3
20260510040948 6 50 0.0 0.0 0.00 0.00 0.00 98 1012.0
20260510040444 6 50 0.0 0.0 0.00 0.00 0.00 98 1012.0
20260510035940 6 50 0.0 3.2 0.00 0.81 0.81 98 1012.4
20260510035436 6 50 0.0 3.2 0.00 0.81 0.81 98 1012.4
20260510034931 6 52 0.0 3.2 0.00 0.81 0.81 98 1012.4
20260510034430 6 52 0.0 3.2 0.00 0.81 0.81 98 1012.1
20260510033926 6 52 0.0 0.0 0.00 0.81 0.81 98 1012.3
20260510033422 6 52 0.0 0.0 0.00 0.81 0.81 98 1012.1
20260510032919 6 57 0.0 0.0 0.00 0.81 0.81 98 1012.2
20260510032416 6 91 0.0 0.0 0.00 0.81 0.81 98 1012.5
20260510031911 6 91 0.0 0.0 0.00 0.81 0.81 98 1012.4
20260510031406 6 91 0.0 0.0 0.13 0.81 0.81 98 1012.4
20260510030901 6 91 0.0 0.0 0.13 0.81 0.81 98 1012.5
20260510030358 6 91 0.0 0.0 0.00 0.79 0.79 98 1012.5
20260510025855 6 91 0.0 0.0 0.00 0.79 0.79 98 1012.6
20260510025353 6 91 0.0 0.0 0.00 0.79 0.79 98 1012.8
20260510024850 6 91 0.0 0.0 0.00 0.79 0.79 98 1012.8
20260510024346 6 91 0.0 0.0 0.00 0.79 0.79 98 1012.9
20260510023842 6 91 0.0 0.0 0.00 0.79 0.79 98 1012.8
20260510023339 6 91 0.0 0.0 0.00 0.79 0.79 98 1012.9
20260510022837 6 91 0.0 0.0 0.18 0.79 0.79 98 1012.7
20260510022335 6 91 0.0 0.0 0.00 0.76 0.76 98 1012.8
20260510021834 6 91 0.0 0.0 0.00 0.76 0.76 98 1012.7
20260510021333 6 91 0.0 0.0 0.00 0.76 0.76 98 1012.9
20260510020828 6 91 0.0 0.0 0.00 0.76 0.76 98 1013.2
20260510020323 6 91 0.0 0.0 0.00 0.76 0.76 98 1013.1
20260510015819 6 91 0.0 0.0 0.00 0.76 0.76 98 1013.1
20260510015315 6 91 0.0 0.0 0.00 0.76 0.76 98 1013.1
20260510014810 6 91 0.0 0.0 0.00 0.76 0.76 98 1013.2
20260510014308 6 91 0.0 0.0 0.00 0.76 0.76 98 1013.3
20260510013804 6 91 0.0 0.0 0.00 0.76 0.76 98 1013.1
20260510013259 6 91 0.0 0.0 0.00 0.76 0.76 98 1013.3
20260510012755 6 91 0.0 3.2 0.00 0.76 0.76 98 1013.1
20260510012249 6 92 0.0 0.0 0.00 0.76 0.76 98 1012.9
20260510011749 6 92 0.0 0.0 0.00 0.76 0.76 98 1013.0
20260510011245 6 92 0.0 0.0 0.00 0.76 0.76 98 1013.2
20260510010742 6 92 0.0 0.0 0.00 0.76 0.76 98 1013.1
20260510010239 6 92 0.0 0.0 0.00 0.76 0.76 98 1012.9
20260510005736 6 92 0.0 0.0 0.00 0.76 0.76 98 1012.8
20260510005232 6 92 0.0 0.0 0.00 0.76 0.76 98 1012.7
20260510004730 6 91 0.0 3.2 0.00 0.76 0.76 98 1012.6
20260510004227 6 91 0.0 3.2 0.00 0.76 0.76 98 1012.5
20260510003725 6 91 0.0 3.2 0.00 0.76 0.76 98 1012.8
20260510003221 6 91 0.0 0.0 0.00 0.76 0.76 98 1012.5
20260510002719 6 91 0.0 0.0 0.00 0.76 0.76 98 1012.4
20260510002217 6 91 0.0 3.2 0.00 0.76 0.76 98 1012.5
20260510001714 6 91 0.0 0.0 0.00 0.76 0.76 98 1012.4
20260510001213 6 91 0.0 3.2 0.00 0.76 0.76 98 1012.6
20260510000708 6 91 0.0 3.2 0.00 0.76 0.76 98 1012.7
20260510000206 6 91 0.0 3.2 0.00 0.76 0.76 98 1012.6
20260509235702 6 91 0.0 3.2 0.00 0.76 0.76 98 1012.7
20260509235158 6 91 0.0 0.0 0.00 0.76 0.76 98 1012.7
20260509234655 6 91 1.6 3.2 0.00 0.76 0.76 98 1012.7
20260509234152 6 91 0.0 3.2 0.13 0.76 0.76 98 1012.8
20260509233650 6 91 1.6 3.2 0.13 0.76 0.76 98 1012.8
20260509233147 6 92 0.0 0.0 0.00 0.74 0.74 98 1012.9
20260509232643 6 91 0.0 0.0 0.18 0.74 0.74 98 1013.0
20260509232140 6 91 3.2 3.2 0.18 0.74 0.74 98 1013.1
20260509231637 6 91 0.0 3.2 0.13 0.71 0.71 98 1013.0
20260509231134 6 91 0.0 3.2 0.13 0.71 0.71 98 1013.2
20260509230631 6 91 0.0 3.2 0.00 0.69 0.69 98 1013.1
20260509230128 6 91 0.0 0.0 0.00 0.69 0.69 98 1013.0
20260509225624 6 91 0.0 0.0 0.18 0.69 0.69 98 1013.1
20260509225119 6 91 0.0 0.0 0.30 0.69 0.69 98 1013.1
20260509224615 6 91 0.0 0.0 0.13 0.66 0.66 98 1013.0
20260509224112 6 91 0.0 0.0 0.00 0.64 0.64 98 1013.2
20260509223609 6 91 0.0 0.0 0.00 0.64 0.64 98 1013.1
20260509223107 6 91 0.0 0.0 0.18 0.64 0.64 98 1013.2
20260509222602 6 91 0.0 0.0 0.18 0.64 0.64 98 1013.3
20260509222059 6 91 0.0 0.0 0.00 0.61 0.61 98 1013.2
20260509221554 6 91 0.0 0.0 0.00 0.61 0.61 98 1013.3
20260509221051 6 91 0.0 3.2 0.00 0.61 0.61 98 1013.4
20260509220546 6 91 1.6 3.2 0.00 0.61 0.61 98 1013.4
20260509220043 6 93 0.0 3.2 0.00 0.61 0.61 98 1013.3
20260509215538 6 91 1.6 3.2 0.18 0.61 0.61 98 1013.3
20260509215036 6 91 0.0 3.2 0.18 0.61 0.61 98 1013.5
20260509214533 6 91 3.2 4.8 0.00 0.58 0.58 98 1013.6
20260509214030 6 90 0.0 3.2 0.00 0.58 0.58 98 1013.5
20260509213526 6 90 0.0 3.2 0.00 0.58 0.58 98 1013.4
20260509213023 6 91 3.2 3.2 0.13 0.58 0.58 98 1013.5
20260509212520 6 90 3.2 3.2 0.13 0.58 0.58 98 1013.5
20260509212017 6 86 0.0 3.2 0.00 0.56 0.56 98 1013.0
20260509211512 6 85 0.0 0.0 0.00 0.56 0.56 98 1012.8
20260509211010 6 98 3.2 3.2 0.00 0.56 0.56 98 1012.9
20260509210506 6 98 1.6 3.2 0.00 0.56 0.56 98 1013.2
20260509210003 6 98 0.0 3.2 0.18 0.56 0.56 98 1013.1
20260509205456 6 98 0.0 3.2 0.00 0.53 0.53 98 1013.1
20260509204952 6 98 1.6 3.2 0.00 0.53 0.53 98 1013.1
20260509204449 6 98 0.0 0.0 0.13 0.53 0.53 98 1013.3
20260509203945 6 98 1.6 3.2 0.13 0.53 0.53 98 1013.1
20260509203441 6 98 0.0 3.2 0.18 0.51 0.51 98 1013.5